contact:dominique.lefevre@mio.osupytheas.fr, maurice.libes@osupytheas.fr, didier.mallarino@osupytheas.fr
Project:EMSO http://www.emso-fr.org/EMSO-France
Depth: 2436.0 m
Title:EMSO Ligure Ouest : Data MII capteur AQUADOPP
Date,Latitude,Longitude,X_East,Y_North,Z_Up,Amplitude_X,Amplitude_Y,Amplitude_Z,Batterie,SoundSpeed,Heading,Pitch,Roll,Pressure,TIS,Speed,Direction
, degrees North, degrees East, m.s-1, m.s-1,m.s-1, 1, 1, 1, Volt, m.s-1, degree, degree, degree, dbar, degree_C, m.s-1, degree
2021-10-27T00:04:03,42.805,6.029,-0.042,0.012,-0.012,103.0,102.0,101.0,13.3,1505.2,330.1,-0.7,1.8,2470.726,13.28,0.043,285.9
2021-10-27T00:07:03,42.805,6.029,-0.049,0.013,-0.014,102.0,102.0,101.0,13.4,1505.2,327.4,-0.8,1.8,2470.676,13.28,0.05,284.9
2021-10-27T00:10:03,42.805,6.029,-0.049,0.022,0.031,103.0,102.0,101.0,13.4,1505.2,328.6,-0.7,1.8,2470.666,13.28,0.053,294.2
2021-10-27T00:13:03,42.805,6.029,-0.025,-0.001,-0.039,102.0,103.0,101.0,13.4,1505.2,328.5,-0.7,1.8,2470.685,13.28,0.025,267.7
2021-10-27T00:16:03,42.805,6.029,-0.034,0.006,-0.008,103.0,103.0,100.0,13.4,1505.2,327.0,-0.8,1.8,2470.69,13.28,0.034,280.0
2021-10-27T00:19:03,42.805,6.029,-0.024,0.017,0.006,102.0,102.0,101.0,13.4,1505.2,326.9,-0.8,1.8,2470.626,13.28,0.029,305.3
2021-10-27T00:22:03,42.805,6.029,-0.038,0.0,-0.024,103.0,103.0,101.0,13.4,1505.2,326.5,-0.8,1.9,2470.664,13.28,0.038,270.0
2021-10-27T00:25:03,42.805,6.029,-0.034,0.003,0.02,103.0,102.0,100.0,13.4,1505.2,326.9,-0.8,1.8,2470.65,13.28,0.034,275.0
2021-10-27T00:28:03,42.805,6.029,-0.015,0.023,0.009,104.0,103.0,101.0,13.4,1505.2,328.9,-0.8,1.8,2470.676,13.28,0.027,326.9
2021-10-27T00:31:03,42.805,6.029,-0.028,0.012,-0.005,104.0,104.0,100.0,13.3,1505.2,327.4,-0.7,1.8,2470.651,13.28,0.03,293.2
2021-10-27T00:34:03,42.805,6.029,-0.035,0.007,-0.025,102.0,102.0,102.0,13.4,1505.2,329.9,-0.8,1.8,2470.598,13.28,0.035,281.3
2021-10-27T00:37:03,42.805,6.029,-0.024,0.006,-0.008,103.0,103.0,102.0,13.4,1505.2,328.5,-0.8,1.8,2470.632,13.28,0.024,284.0
2021-10-27T00:40:03,42.805,6.029,-0.027,0.0,-0.037,102.0,102.0,101.0,13.4,1505.2,331.6,-0.8,1.8,2470.617,13.28,0.026,270.0
2021-10-27T00:43:03,42.805,6.029,-0.03,0.002,0.017,103.0,102.0,100.0,13.4,1505.2,326.3,-0.8,1.8,2470.645,13.28,0.03,273.8
2021-10-27T00:46:03,42.805,6.029,-0.013,0.002,-0.01,103.0,102.0,101.0,13.4,1505.2,327.0,-0.7,1.8,2470.63,13.28,0.013,278.7
2021-10-27T00:49:03,42.805,6.029,-0.029,0.011,0.001,103.0,102.0,101.0,13.3,1505.2,329.3,-0.7,1.8,2470.621,13.28,0.031,290.8
2021-10-27T00:52:03,42.805,6.029,-0.048,0.007,-0.012,102.0,102.0,101.0,13.3,1505.2,327.0,-0.7,1.8,2470.612,13.28,0.048,278.3
2021-10-27T00:55:03,42.805,6.029,-0.048,0.02,0.001,103.0,102.0,100.0,13.3,1505.2,326.3,-0.8,1.8,2470.6,13.28,0.052,292.6
2021-10-27T00:58:03,42.805,6.029,-0.026,0.009,-0.03,103.0,101.0,101.0,13.3,1505.2,325.5,-0.8,1.8,2470.616,13.29,0.027,289.1
2021-10-27T01:04:03,42.805,6.029,-0.021,0.027,-0.007,103.0,104.0,102.0,13.4,1505.2,328.1,-0.8,1.8,2470.656,13.28,0.034,322.1
2021-10-27T01:07:03,42.805,6.029,-0.039,0.014,-0.003,102.0,102.0,101.0,13.3,1505.2,327.7,-0.8,1.8,2470.667,13.28,0.041,289.7
2021-10-27T01:10:03,42.805,6.029,-0.016,0.015,-0.008,102.0,102.0,101.0,13.4,1505.2,330.2,-0.8,1.8,2470.635,13.28,0.021,313.1
2021-10-27T01:13:03,42.805,6.029,-0.007,0.003,0.012,101.0,102.0,101.0,13.4,1505.2,327.8,-0.7,1.8,2470.644,13.28,0.007,293.2
2021-10-27T01:16:03,42.805,6.029,-0.026,0.014,-0.004,103.0,102.0,101.0,13.3,1505.2,327.4,-0.8,1.8,2470.596,13.28,0.029,298.3
2021-10-27T01:19:03,42.805,6.029,-0.028,0.018,-0.006,102.0,102.0,101.0,13.3,1505.2,327.4,-0.8,1.8,2470.622,13.28,0.033,302.7
2021-10-27T01:22:03,42.805,6.029,-0.044,0.021,-0.04,101.0,101.0,102.0,13.3,1505.2,328.2,-0.7,1.8,2470.622,13.28,0.048,295.5
2021-10-27T01:25:03,42.805,6.029,-0.033,0.015,-0.027,102.0,101.0,102.0,13.3,1505.2,327.8,-0.7,1.8,2470.583,13.28,0.036,294.4
2021-10-27T01:28:03,42.805,6.029,-0.034,0.018,-0.004,103.0,102.0,101.0,13.4,1505.2,327.1,-0.8,1.8,2470.62,13.28,0.038,297.9
2021-10-27T01:31:03,42.805,6.029,-0.023,0.01,-0.004,101.0,102.0,101.0,13.3,1505.2,327.7,-0.8,1.9,2470.596,13.28,0.025,293.5
2021-10-27T01:34:03,42.805,6.029,-0.035,0.028,0.012,102.0,102.0,102.0,13.4,1505.2,329.9,-0.8,1.8,2470.633,13.28,0.044,308.7
2021-10-27T01:37:03,42.805,6.029,-0.026,0.0,-0.013,103.0,102.0,101.0,13.4,1505.2,328.8,-0.8,1.8,2470.622,13.28,0.026,270.0
2021-10-27T01:40:03,42.805,6.029,-0.037,0.016,-0.003,102.0,102.0,101.0,13.4,1505.2,330.8,-0.7,1.8,2470.646,13.28,0.04,293.4
2021-10-27T01:43:03,42.805,6.029,-0.031,0.009,-0.022,103.0,102.0,101.0,13.4,1505.2,330.5,-0.7,1.8,2470.605,13.28,0.032,286.2
2021-10-27T01:46:03,42.805,6.029,-0.011,-0.005,-0.021,102.0,102.0,101.0,13.4,1505.2,328.0,-0.8,1.8,2470.626,13.28,0.012,245.6
2021-10-27T01:49:03,42.805,6.029,-0.029,-0.003,-0.014,102.0,102.0,101.0,13.4,1505.2,327.0,-0.7,1.8,2470.611,13.28,0.029,264.1
2021-10-27T01:52:03,42.805,6.029,-0.031,0.019,-0.004,102.0,102.0,101.0,13.4,1505.2,328.8,-0.7,1.8,2470.648,13.28,0.036,301.5
2021-10-27T01:55:03,42.805,6.029,-0.009,0.008,-0.009,103.0,103.0,100.0,13.3,1505.2,326.3,-0.7,1.8,2470.63,13.28,0.012,311.6
2021-10-27T01:58:03,42.805,6.029,-0.012,0.002,-0.008,103.0,103.0,101.0,13.3,1505.2,328.3,-0.8,1.8,2470.602,13.28,0.012,279.5
2021-10-27T02:04:03,42.805,6.029,-0.027,0.003,-0.003,103.0,102.0,101.0,13.3,1505.2,327.8,-0.8,1.8,2470.614,13.28,0.027,276.3
2021-10-27T02:07:03,42.805,6.029,-0.023,0.029,-0.002,102.0,102.0,102.0,13.4,1505.2,329.9,-0.8,1.8,2470.653,13.28,0.037,321.6
2021-10-27T02:10:03,42.805,6.029,-0.031,0.005,-0.035,102.0,103.0,101.0,13.4,1505.2,328.0,-0.7,1.9,2470.642,13.28,0.031,279.2
2021-10-27T02:13:03,42.805,6.029,-0.029,-0.003,0.004,103.0,103.0,101.0,13.3,1505.2,329.1,-0.8,1.8,2470.662,13.28,0.029,264.1
2021-10-27T02:16:03,42.805,6.029,-0.027,0.003,-0.019,102.0,102.0,100.0,13.4,1505.2,329.2,-0.7,1.8,2470.591,13.28,0.027,276.3
2021-10-27T02:19:03,42.805,6.029,-0.033,0.02,-0.026,103.0,101.0,100.0,13.4,1505.2,327.4,-0.8,1.8,2470.571,13.28,0.038,301.2
2021-10-27T02:22:03,42.805,6.029,-0.011,0.021,0.036,102.0,102.0,103.0,13.3,1505.2,331.3,-0.8,1.8,2470.624,13.28,0.023,332.4
2021-10-27T02:25:03,42.805,6.029,-0.04,0.029,-0.011,102.0,103.0,101.0,13.3,1505.2,326.4,-0.7,1.8,2470.65,13.28,0.049,305.9
2021-10-27T02:28:03,42.805,6.029,-0.022,0.01,-0.015,102.0,102.0,100.0,13.4,1505.2,329.0,-0.7,1.8,2470.617,13.28,0.024,294.4
2021-10-27T02:31:03,42.805,6.029,-0.03,0.013,-0.006,100.0,103.0,101.0,13.4,1505.2,327.4,-0.8,1.8,2470.605,13.28,0.032,293.4
2021-10-27T02:34:03,42.805,6.029,-0.033,-0.005,-0.011,103.0,100.0,101.0,13.4,1505.2,327.3,-0.8,1.8,2470.591,13.28,0.033,261.4
2021-10-27T02:37:03,42.805,6.029,-0.015,0.02,0.003,100.0,101.0,102.0,13.4,1505.2,328.0,-0.7,1.8,2470.651,13.29,0.025,323.1
2021-10-27T02:40:03,42.805,6.029,-0.02,0.036,0.014,102.0,101.0,100.0,13.4,1505.2,328.9,-0.7,1.8,2470.594,13.28,0.041,330.9
2021-10-27T02:43:03,42.805,6.029,-0.008,0.009,-0.001,102.0,101.0,101.0,13.4,1505.2,326.7,-0.8,1.8,2470.611,13.28,0.012,318.4
2021-10-27T02:46:03,42.805,6.029,-0.02,0.012,0.004,102.0,101.0,101.0,13.4,1505.2,328.6,-0.8,1.8,2470.645,13.28,0.023,301.0
2021-10-27T02:49:03,42.805,6.029,-0.024,0.002,-0.014,103.0,102.0,100.0,13.3,1505.2,327.4,-0.8,1.8,2470.623,13.28,0.024,274.8
2021-10-27T02:52:03,42.805,6.029,-0.023,-0.01,-0.03,102.0,103.0,100.0,13.3,1505.2,330.8,-0.8,1.8,2470.673,13.28,0.025,246.5
2021-10-27T02:55:03,42.805,6.029,-0.005,0.006,-0.015,101.0,102.0,100.0,13.3,1505.2,329.8,-0.7,1.9,2470.594,13.28,0.007,320.2
2021-10-27T02:58:03,42.805,6.029,-0.029,0.03,0.033,101.0,101.0,101.0,13.4,1505.2,328.4,-0.7,1.8,2470.598,13.28,0.041,316.0
2021-10-27T03:04:03,42.805,6.029,-0.019,0.021,0.043,102.0,102.0,100.0,13.4,1505.2,329.9,-0.8,1.8,2470.656,13.28,0.028,317.9
2021-10-27T03:07:03,42.805,6.029,-0.033,0.0,-0.03,102.0,102.0,101.0,13.3,1505.2,329.3,-0.7,1.8,2470.654,13.28,0.033,270.0
2021-10-27T03:10:03,42.805,6.029,-0.015,0.0,-0.015,103.0,100.0,100.0,13.3,1505.2,330.1,-0.8,1.8,2470.599,13.28,0.015,270.0
2021-10-27T03:13:03,42.805,6.029,-0.026,0.004,0.012,102.0,101.0,101.0,13.4,1505.2,330.8,-0.8,1.8,2470.624,13.28,0.026,278.7
2021-10-27T03:16:03,42.805,6.029,-0.023,-0.001,-0.008,101.0,102.0,101.0,13.4,1505.2,330.3,-0.8,1.8,2470.598,13.28,0.023,267.5
2021-10-27T03:19:03,42.805,6.029,-0.03,0.004,-0.021,102.0,103.0,100.0,13.4,1505.2,328.1,-0.8,1.8,2470.665,13.28,0.03,277.6
2021-10-27T03:22:03,42.805,6.029,-0.014,0.005,-0.028,103.0,102.0,101.0,13.3,1505.2,329.2,-0.8,1.8,2470.639,13.29,0.014,289.6
2021-10-27T03:25:03,42.805,6.029,-0.021,0.011,0.031,103.0,102.0,101.0,13.4,1505.2,330.2,-0.8,1.8,2470.62,13.29,0.023,297.6
2021-10-27T03:28:03,42.805,6.029,-0.032,0.01,-0.019,102.0,102.0,102.0,13.4,1505.2,325.3,-0.8,1.8,2470.586,13.29,0.033,287.4
2021-10-27T03:31:03,42.805,6.029,-0.035,0.006,-0.031,101.0,102.0,101.0,13.4,1505.2,327.1,-0.7,1.8,2470.596,13.29,0.035,279.7
2021-10-27T03:34:03,42.805,6.029,-0.004,-0.001,-0.007,102.0,102.0,102.0,13.4,1505.2,328.8,-0.7,1.9,2470.605,13.29,0.004,256.0
2021-10-27T03:37:03,42.805,6.029,-0.049,0.0,-0.024,102.0,101.0,102.0,13.3,1505.2,326.0,-0.7,1.8,2470.598,13.29,0.049,270.0
2021-10-27T03:40:03,42.805,6.029,-0.037,0.003,-0.039,103.0,102.0,101.0,13.4,1505.2,331.2,-0.8,1.8,2470.591,13.29,0.037,274.6
2021-10-27T03:43:03,42.805,6.029,-0.027,0.002,-0.032,103.0,101.0,100.0,13.4,1505.2,329.0,-0.7,1.8,2470.586,13.29,0.027,274.2
2021-10-27T03:46:03,42.805,6.029,-0.027,0.002,-0.027,102.0,103.0,101.0,13.3,1505.2,331.4,-0.7,1.8,2470.622,13.29,0.027,274.2
2021-10-27T03:49:03,42.805,6.029,-0.021,-0.012,-0.022,103.0,102.0,101.0,13.4,1505.2,330.1,-0.7,1.8,2470.571,13.29,0.024,240.3
2021-10-27T03:52:03,42.805,6.029,-0.01,0.026,0.013,102.0,102.0,102.0,13.3,1505.2,331.7,-0.8,1.8,2470.601,13.29,0.027,339.0
2021-10-27T03:55:03,42.805,6.029,-0.009,0.0,0.011,103.0,102.0,101.0,13.4,1505.2,325.9,-0.8,1.8,2470.576,13.29,0.009,270.0
2021-10-27T03:58:03,42.805,6.029,-0.028,-0.008,-0.03,102.0,103.0,101.0,13.3,1505.2,327.9,-0.7,1.8,2470.625,13.29,0.029,254.1
2021-10-27T04:04:03,42.805,6.029,-0.037,0.018,-0.029,104.0,102.0,100.0,13.4,1505.2,329.7,-0.8,1.8,2470.644,13.28,0.041,295.9
2021-10-27T04:07:03,42.805,6.029,-0.021,0.0,-0.026,103.0,101.0,101.0,13.4,1505.2,330.2,-0.8,1.8,2470.644,13.28,0.021,270.0
2021-10-27T04:10:03,42.805,6.029,-0.038,-0.003,0.005,102.0,102.0,101.0,13.3,1505.2,329.1,-0.8,1.8,2470.671,13.28,0.038,265.5
2021-10-27T04:13:03,42.805,6.029,-0.028,-0.001,-0.024,103.0,104.0,102.0,13.4,1505.2,329.0,-0.7,1.8,2470.641,13.28,0.028,268.0
2021-10-27T04:16:03,42.805,6.029,-0.033,0.004,0.0,102.0,103.0,101.0,13.3,1505.2,328.3,-0.8,1.8,2470.573,13.28,0.033,276.9
2021-10-27T04:19:03,42.805,6.029,-0.022,0.003,-0.015,104.0,101.0,101.0,13.4,1505.2,330.2,-0.8,1.8,2470.638,13.28,0.022,277.8
2021-10-27T04:22:03,42.805,6.029,-0.009,-0.014,-0.024,102.0,103.0,101.0,13.4,1505.2,327.3,-0.7,1.8,2470.622,13.28,0.016,212.7
2021-10-27T04:25:03,42.805,6.029,-0.025,-0.006,-0.027,102.0,102.0,102.0,13.3,1505.2,325.9,-0.8,1.8,2470.616,13.28,0.025,256.5
2021-10-27T04:28:03,42.805,6.029,-0.013,0.024,-0.018,103.0,103.0,101.0,13.4,1505.2,329.4,-0.7,1.8,2470.575,13.28,0.027,331.6
2021-10-27T04:31:03,42.805,6.029,-0.027,0.018,-0.045,102.0,103.0,101.0,13.4,1505.2,325.6,-0.8,1.8,2470.643,13.28,0.032,303.7
2021-10-27T04:34:03,42.805,6.029,-0.03,0.005,0.001,104.0,102.0,100.0,13.3,1505.2,326.5,-0.7,1.8,2470.532,13.28,0.03,279.5
2021-10-27T04:37:03,42.805,6.029,-0.025,0.011,-0.012,103.0,104.0,102.0,13.4,1505.2,331.5,-0.8,1.8,2470.505,13.28,0.027,293.7
2021-10-27T04:40:03,42.805,6.029,-0.011,0.001,-0.024,103.0,103.0,102.0,13.4,1505.2,326.1,-0.8,1.8,2470.468,13.29,0.011,275.2
2021-10-27T04:43:03,42.805,6.029,-0.023,0.007,0.007,102.0,103.0,101.0,13.3,1505.2,330.4,-0.8,1.8,2470.497,13.29,0.024,286.9
2021-10-27T04:46:03,42.805,6.029,-0.028,0.0,-0.025,102.0,103.0,102.0,13.4,1505.2,329.4,-0.7,1.8,2470.441,13.29,0.028,270.0
2021-10-27T04:49:03,42.805,6.029,-0.029,-0.002,0.015,104.0,105.0,102.0,13.3,1505.2,325.5,-0.8,1.8,2470.378,13.29,0.029,266.1
2021-10-27T04:52:03,42.805,6.029,-0.019,0.006,-0.009,103.0,104.0,101.0,13.4,1505.2,326.7,-0.8,1.8,2470.381,13.29,0.019,287.5
2021-10-27T04:55:03,42.805,6.029,-0.029,-0.007,-0.018,103.0,102.0,102.0,13.3,1505.2,326.5,-0.8,1.9,2470.369,13.29,0.029,256.4
2021-10-27T04:58:03,42.805,6.029,-0.03,0.0,0.0,104.0,102.0,101.0,13.4,1505.2,331.1,-0.8,1.8,2470.387,13.29,0.03,270.0
2021-10-27T05:04:03,42.805,6.029,0.0,0.003,0.014,103.0,102.0,102.0,13.3,1505.2,327.5,-0.8,1.8,2470.324,13.28,0.003,0.0
2021-10-27T05:07:03,42.805,6.029,-0.041,0.017,-0.016,103.0,104.0,101.0,13.4,1505.2,327.6,-0.8,1.8,2470.325,13.28,0.044,292.5
2021-10-27T05:10:03,42.805,6.029,-0.019,-0.005,-0.032,102.0,103.0,101.0,13.3,1505.2,328.4,-0.8,1.8,2470.338,13.28,0.019,255.3
2021-10-27T05:13:03,42.805,6.029,-0.019,0.017,0.009,103.0,102.0,101.0,13.4,1505.2,327.2,-0.8,1.8,2470.283,13.28,0.025,311.8
2021-10-27T05:16:03,42.805,6.029,-0.035,-0.008,-0.01,103.0,102.0,102.0,13.4,1505.2,329.1,-0.8,1.8,2470.318,13.28,0.035,257.1
2021-10-27T05:19:03,42.805,6.029,-0.02,-0.017,-0.032,104.0,102.0,101.0,13.4,1505.2,329.7,-0.8,1.8,2470.299,13.28,0.026,229.6
2021-10-27T05:22:03,42.805,6.029,-0.038,0.005,-0.007,104.0,105.0,102.0,13.4,1505.2,327.1,-0.7,1.8,2470.316,13.28,0.038,277.5
2021-10-27T05:25:03,42.805,6.029,-0.03,0.017,0.009,104.0,102.0,101.0,13.4,1505.2,326.2,-0.8,1.8,2470.288,13.28,0.034,299.5
2021-10-27T05:28:03,42.805,6.029,-0.024,0.012,-0.021,103.0,102.0,102.0,13.4,1505.2,331.8,-0.8,1.8,2470.266,13.28,0.026,296.6
2021-10-27T05:31:03,42.805,6.029,-0.018,-0.016,-0.018,105.0,102.0,101.0,13.3,1505.2,326.2,-0.7,1.8,2470.268,13.28,0.024,228.4
2021-10-27T05:34:03,42.805,6.029,-0.033,0.008,-0.009,103.0,103.0,102.0,13.4,1505.2,328.8,-0.8,1.8,2470.346,13.28,0.033,283.6
2021-10-27T05:37:03,42.805,6.029,-0.049,0.005,-0.032,105.0,102.0,102.0,13.4,1505.2,327.0,-0.7,1.8,2470.303,13.28,0.049,275.8
2021-10-27T05:40:03,42.805,6.029,-0.015,0.005,-0.007,103.0,102.0,102.0,13.4,1505.2,330.7,-0.7,1.8,2470.272,13.28,0.015,288.4
2021-10-27T05:43:03,42.805,6.029,-0.02,0.002,-0.02,104.0,102.0,101.0,13.4,1505.2,331.4,-0.8,1.8,2470.346,13.29,0.02,275.7
2021-10-27T05:46:03,42.805,6.029,-0.039,0.004,-0.003,102.0,104.0,101.0,13.3,1505.2,326.8,-0.8,1.8,2470.372,13.28,0.039,275.9
2021-10-27T05:49:03,42.805,6.029,-0.031,-0.007,0.0,103.0,103.0,101.0,13.4,1505.2,324.6,-0.8,1.8,2470.377,13.28,0.031,257.3
2021-10-27T05:52:03,42.805,6.029,-0.014,-0.004,0.001,104.0,102.0,102.0,13.4,1505.2,326.2,-0.7,1.8,2470.382,13.28,0.014,254.1
2021-10-27T05:55:03,42.805,6.029,-0.021,-0.004,-0.012,104.0,101.0,101.0,13.3,1505.2,325.4,-0.7,1.8,2470.345,13.28,0.021,259.2
2021-10-27T05:58:03,42.805,6.029,-0.032,0.004,-0.03,103.0,102.0,101.0,13.3,1505.2,325.3,-0.8,1.8,2470.304,13.28,0.032,277.1
2021-10-27T06:04:03,42.805,6.029,-0.034,0.008,-0.017,103.0,102.0,102.0,13.4,1505.2,328.2,-0.8,1.8,2470.361,13.28,0.034,283.2
2021-10-27T06:07:03,42.805,6.029,-0.035,-0.002,-0.014,103.0,103.0,102.0,13.4,1505.2,326.0,-0.8,1.8,2470.384,13.28,0.035,266.7
2021-10-27T06:10:03,42.805,6.029,-0.039,-0.002,-0.014,104.0,103.0,101.0,13.4,1505.2,325.5,-0.8,1.8,2470.435,13.28,0.039,267.1
2021-10-27T06:13:03,42.805,6.029,-0.026,0.004,0.007,103.0,103.0,102.0,13.4,1505.2,325.8,-0.7,1.8,2470.462,13.28,0.026,278.7
2021-10-27T06:16:03,42.805,6.029,-0.046,-0.01,-0.024,103.0,102.0,102.0,13.4,1505.2,330.2,-0.8,1.8,2470.481,13.28,0.047,257.7
2021-10-27T06:19:03,42.805,6.029,-0.037,-0.01,-0.017,102.0,104.0,102.0,13.4,1505.2,329.6,-0.8,1.8,2470.56,13.28,0.038,254.9
2021-10-27T06:22:03,42.805,6.029,-0.051,0.002,-0.015,104.0,102.0,101.0,13.4,1505.2,328.9,-0.7,1.8,2470.557,13.28,0.051,272.2
2021-10-27T06:25:03,42.805,6.029,-0.047,0.001,0.002,103.0,102.0,101.0,13.3,1505.2,327.2,-0.8,1.8,2470.546,13.28,0.047,271.2
2021-10-27T06:28:03,42.805,6.029,-0.036,0.002,-0.014,103.0,103.0,101.0,13.4,1505.2,331.5,-0.8,1.8,2470.622,13.28,0.036,273.2
2021-10-27T06:31:03,42.805,6.029,-0.051,0.007,-0.029,104.0,103.0,101.0,13.4,1505.2,329.6,-0.7,1.9,2470.579,13.28,0.051,277.8
2021-10-27T06:34:03,42.805,6.029,-0.051,0.008,-0.03,102.0,102.0,102.0,13.4,1505.2,328.3,-0.7,1.8,2470.607,13.28,0.051,278.9
2021-10-27T06:37:03,42.805,6.029,-0.039,-0.012,0.009,103.0,102.0,102.0,13.4,1505.2,331.4,-0.8,1.8,2470.613,13.28,0.04,252.9
2021-10-27T06:40:03,42.805,6.029,-0.031,-0.001,-0.018,103.0,103.0,101.0,13.3,1505.2,326.9,-0.7,1.8,2470.661,13.28,0.031,268.2
2021-10-27T06:43:03,42.805,6.029,-0.032,0.008,-0.016,103.0,102.0,102.0,13.4,1505.2,331.3,-0.8,1.8,2470.645,13.28,0.032,284.0
2021-10-27T06:46:03,42.805,6.029,-0.034,-0.001,-0.044,104.0,101.0,101.0,13.3,1505.2,330.0,-0.8,1.8,2470.621,13.28,0.034,268.3
2021-10-27T06:49:03,42.805,6.029,-0.032,0.0,-0.022,103.0,103.0,102.0,13.4,1505.2,331.3,-0.8,1.9,2470.678,13.28,0.032,270.0
2021-10-27T06:52:03,42.805,6.029,-0.038,0.009,-0.013,103.0,103.0,101.0,13.4,1505.2,326.0,-0.8,1.8,2470.679,13.28,0.039,283.3
2021-10-27T06:55:03,42.805,6.029,-0.061,0.018,-0.021,104.0,101.0,101.0,13.4,1505.2,328.5,-0.8,1.8,2470.633,13.28,0.063,286.4
2021-10-27T06:58:03,42.805,6.029,-0.039,0.013,-0.016,103.0,103.0,101.0,13.4,1505.2,328.9,-0.8,1.8,2470.661,13.28,0.041,288.4
2021-10-27T07:04:03,42.805,6.029,-0.041,-0.003,0.007,103.0,102.0,102.0,13.4,1505.2,327.5,-0.8,1.8,2470.693,13.28,0.041,265.8
2021-10-27T07:07:03,42.805,6.029,-0.059,0.006,-0.001,102.0,102.0,102.0,13.3,1505.2,328.4,-0.7,1.8,2470.659,13.28,0.059,275.8
2021-10-27T07:10:03,42.805,6.029,-0.028,-0.018,-0.031,103.0,103.0,101.0,13.4,1505.2,328.1,-0.8,1.8,2470.675,13.28,0.033,237.3
2021-10-27T07:13:03,42.805,6.029,-0.03,0.006,-0.046,104.0,103.0,101.0,13.4,1505.2,330.0,-0.7,1.8,2470.701,13.28,0.03,281.3
2021-10-27T07:16:03,42.805,6.029,-0.03,-0.012,-0.016,103.0,102.0,100.0,13.4,1505.2,325.1,-0.8,1.8,2470.703,13.28,0.032,248.2
2021-10-27T07:19:03,42.805,6.029,-0.039,0.009,0.007,103.0,102.0,101.0,13.3,1505.2,329.0,-0.8,1.9,2470.688,13.28,0.04,283.0
2021-10-27T07:22:03,42.805,6.029,-0.053,0.011,-0.019,102.0,102.0,101.0,13.4,1505.2,328.8,-0.7,1.9,2470.692,13.28,0.054,281.7
2021-10-27T07:25:03,42.805,6.029,-0.021,0.005,0.01,103.0,103.0,100.0,13.4,1505.2,331.5,-0.8,1.8,2470.679,13.28,0.021,283.4
2021-10-27T07:28:03,42.805,6.029,-0.023,-0.009,-0.033,103.0,103.0,101.0,13.3,1505.2,325.2,-0.8,1.8,2470.674,13.28,0.024,248.6
2021-10-27T07:31:03,42.805,6.029,-0.051,0.006,-0.016,103.0,102.0,102.0,13.4,1505.2,325.9,-0.7,1.9,2470.68,13.28,0.051,276.7
2021-10-27T07:34:03,42.805,6.029,-0.049,-0.004,-0.038,103.0,102.0,101.0,13.4,1505.2,328.0,-0.7,1.9,2470.661,13.28,0.049,265.3
2021-10-27T07:37:03,42.805,6.029,-0.054,0.028,-0.02,102.0,102.0,101.0,13.3,1505.2,328.9,-0.7,1.8,2470.669,13.28,0.06,297.4
2021-10-27T07:40:03,42.805,6.029,-0.048,0.0,-0.015,103.0,103.0,101.0,13.4,1505.2,327.5,-0.7,1.8,2470.693,13.28,0.048,270.0
2021-10-27T07:43:03,42.805,6.029,-0.045,-0.015,-0.005,104.0,104.0,100.0,13.4,1505.2,327.4,-0.7,1.8,2470.691,13.28,0.047,251.6
2021-10-27T07:46:03,42.805,6.029,-0.038,0.006,-0.014,103.0,103.0,101.0,13.3,1505.2,325.2,-0.8,1.8,2470.685,13.28,0.038,279.0
2021-10-27T07:49:03,42.805,6.029,-0.067,0.016,-0.014,102.0,102.0,100.0,13.4,1505.2,329.9,-0.7,1.8,2470.711,13.28,0.068,283.4
2021-10-27T07:52:03,42.805,6.029,-0.019,-0.009,-0.008,103.0,103.0,101.0,13.4,1505.2,327.3,-0.7,1.8,2470.683,13.28,0.021,244.7
2021-10-27T07:55:03,42.805,6.029,-0.027,-0.007,-0.05,102.0,103.0,101.0,13.3,1505.2,328.1,-0.7,1.8,2470.666,13.28,0.027,255.5
2021-10-27T07:58:03,42.805,6.029,-0.046,-0.003,-0.013,102.0,102.0,101.0,13.4,1505.2,327.9,-0.8,1.8,2470.695,13.28,0.046,266.3
2021-10-27T08:04:03,42.805,6.029,-0.042,-0.008,-0.055,102.0,102.0,101.0,13.3,1505.2,329.3,-0.7,1.8,2470.772,13.28,0.042,259.2
2021-10-27T08:07:03,42.805,6.029,-0.01,-0.005,-0.027,103.0,103.0,100.0,13.4,1505.2,326.9,-0.7,1.8,2470.726,13.28,0.011,243.4
2021-10-27T08:10:03,42.805,6.029,-0.025,-0.009,-0.025,103.0,101.0,101.0,13.3,1505.2,327.5,-0.8,1.8,2470.694,13.28,0.026,250.2
2021-10-27T08:13:03,42.805,6.029,-0.038,-0.02,0.029,103.0,102.0,101.0,13.3,1505.2,326.8,-0.7,1.8,2470.713,13.28,0.042,242.2
2021-10-27T08:16:03,42.805,6.029,-0.033,0.0,0.0,102.0,103.0,101.0,13.4,1505.2,327.5,-0.8,1.9,2470.7,13.28,0.033,270.0
2021-10-27T08:19:03,42.805,6.029,-0.069,0.013,0.006,102.0,102.0,103.0,13.3,1505.2,328.5,-0.7,1.8,2470.725,13.28,0.07,280.7
2021-10-27T08:22:03,42.805,6.029,-0.065,0.001,-0.037,102.0,102.0,101.0,13.4,1505.2,329.7,-0.7,1.8,2470.708,13.28,0.065,270.9
2021-10-27T08:25:03,42.805,6.029,-0.064,0.004,-0.012,101.0,102.0,102.0,13.4,1505.2,325.9,-0.7,1.8,2470.699,13.28,0.064,273.6
2021-10-27T08:28:03,42.805,6.029,-0.057,0.004,-0.017,102.0,102.0,101.0,13.4,1505.2,328.9,-0.8,1.8,2470.7,13.28,0.057,274.0
2021-10-27T08:31:03,42.805,6.029,-0.051,0.006,-0.027,103.0,103.0,100.0,13.4,1505.2,330.0,-0.7,1.8,2470.753,13.28,0.051,276.7
2021-10-27T08:34:03,42.805,6.029,-0.037,-0.001,-0.022,102.0,102.0,101.0,13.4,1505.2,326.6,-0.8,1.8,2470.687,13.28,0.037,268.5
2021-10-27T08:37:03,42.805,6.029,-0.027,0.008,-0.01,102.0,102.0,101.0,13.3,1505.2,327.8,-0.7,1.8,2470.719,13.28,0.028,286.5
2021-10-27T08:40:03,42.805,6.029,-0.052,0.002,-0.022,102.0,103.0,101.0,13.4,1505.2,328.9,-0.8,1.8,2470.681,13.28,0.052,272.2
2021-10-27T08:43:03,42.805,6.029,-0.041,0.014,-0.001,103.0,102.0,101.0,13.4,1505.2,328.2,-0.7,1.8,2470.719,13.28,0.043,288.9
2021-10-27T08:46:03,42.805,6.029,-0.04,-0.001,-0.008,102.0,102.0,102.0,13.4,1505.2,331.7,-0.7,1.8,2470.766,13.28,0.04,268.6
2021-10-27T08:49:03,42.805,6.029,-0.05,0.002,0.01,103.0,102.0,101.0,13.4,1505.2,329.2,-0.7,1.8,2470.733,13.28,0.05,272.3
2021-10-27T08:52:03,42.805,6.029,-0.032,-0.003,-0.018,103.0,102.0,101.0,13.3,1505.2,330.1,-0.7,1.8,2470.717,13.28,0.032,264.6
2021-10-27T08:55:03,42.805,6.029,-0.035,-0.01,-0.02,102.0,102.0,101.0,13.4,1505.2,326.8,-0.7,1.8,2470.717,13.28,0.036,254.1
2021-10-27T08:58:03,42.805,6.029,-0.054,0.029,-0.005,103.0,103.0,101.0,13.4,1505.2,331.0,-0.7,1.8,2470.722,13.28,0.061,298.2
2021-10-27T09:04:03,42.805,6.029,-0.062,0.005,0.0,102.0,103.0,101.0,13.3,1505.2,327.0,-0.7,1.9,2470.758,13.28,0.062,274.6
2021-10-27T09:07:03,42.805,6.029,-0.055,0.01,-0.015,102.0,102.0,101.0,13.4,1505.2,330.4,-0.7,1.8,2470.768,13.28,0.055,280.3
2021-10-27T09:10:03,42.805,6.029,-0.062,0.004,-0.022,102.0,102.0,102.0,13.3,1505.2,331.2,-0.8,1.8,2470.765,13.28,0.062,273.7
2021-10-27T09:13:03,42.805,6.029,-0.052,0.022,-0.023,103.0,101.0,103.0,13.3,1505.2,330.4,-0.8,1.8,2470.718,13.28,0.056,292.9
2021-10-27T09:16:03,42.805,6.029,-0.052,0.019,-0.004,102.0,102.0,101.0,13.4,1505.2,331.8,-0.8,1.8,2470.745,13.28,0.055,290.1
2021-10-27T09:19:03,42.805,6.029,-0.048,0.01,-0.018,102.0,102.0,100.0,13.4,1505.2,330.9,-0.7,1.8,2470.74,13.28,0.049,281.8
2021-10-27T09:22:03,42.805,6.029,-0.033,0.026,-0.006,103.0,101.0,100.0,13.4,1505.2,327.3,-0.8,1.8,2470.756,13.28,0.042,308.2
2021-10-27T09:25:03,42.805,6.029,-0.065,0.019,0.006,102.0,102.0,101.0,13.4,1505.2,325.3,-0.7,1.8,2470.763,13.28,0.067,286.3
2021-10-27T09:28:03,42.805,6.029,-0.043,-0.008,-0.019,102.0,102.0,101.0,13.3,1505.2,327.3,-0.7,1.8,2470.756,13.28,0.043,259.5
2021-10-27T09:31:03,42.805,6.029,-0.044,0.009,-0.027,104.0,102.0,100.0,13.3,1505.2,325.5,-0.7,1.8,2470.753,13.28,0.044,281.6
2021-10-27T09:34:03,42.805,6.029,-0.066,0.001,-0.053,101.0,102.0,101.0,13.4,1505.2,328.8,-0.8,1.8,2470.727,13.28,0.066,270.9
2021-10-27T09:37:03,42.805,6.029,-0.047,0.037,0.052,102.0,103.0,101.0,13.3,1505.2,329.7,-0.8,1.8,2470.786,13.28,0.059,308.2
2021-10-27T09:40:03,42.805,6.029,-0.048,-0.015,-0.03,103.0,102.0,101.0,13.3,1505.2,330.8,-0.7,1.8,2470.73,13.28,0.05,252.6
2021-10-27T09:43:03,42.805,6.029,-0.044,0.009,-0.03,102.0,102.0,101.0,13.4,1505.2,325.9,-0.8,1.8,2470.709,13.28,0.044,281.6
2021-10-27T09:46:03,42.805,6.029,-0.047,0.022,-0.011,103.0,102.0,101.0,13.4,1505.2,327.8,-0.8,1.8,2470.731,13.28,0.051,295.1
2021-10-27T09:49:03,42.805,6.029,-0.042,0.001,-0.006,102.0,102.0,102.0,13.4,1505.2,330.1,-0.7,1.8,2470.749,13.28,0.042,271.4
2021-10-27T09:52:03,42.805,6.029,-0.063,0.015,-0.008,103.0,102.0,102.0,13.4,1505.2,327.4,-0.8,1.8,2470.783,13.28,0.064,283.4